Location: Alessandro
(33.8861°N, 117.2703°W)
Time: 11:26:37
(UTC+00:00)

Daily predictions for brighter satellites

Satellite Brightness Start Highest point End
(mag) Time Altitude Azimuth Time Altitude Azimuth Time Altitude Azimuth
Cosmos 2344 3.4 12:08:10 86° ENE 12:08:10 86° ENE 12:15:44 10° NNE
Cosmos 2219 4.5 12:11:47 33° SSE 12:11:47 33° SSE 12:14:48 10° SSE
CZ-3A R/B 3.8 12:11:36 43° SSW 12:13:31 49° SSE 12:41:50 10° E
H-2A R/B 4.4 12:17:38 18° S 12:18:31 19° S 12:27:22 10° SE
Cosmos 2297 Rocket 2.4 12:25:29 68° SE 12:25:29 68° SE 12:30:30 10° SSE
SEDSat Delta rocket 3.9 12:27:33 68° SSE 12:27:33 68° SSE 12:32:52 10° E
ALOS 4.0 12:23:49 10° NE 12:28:00 32° E 12:32:08 10° SSE
Cosmos 1626 4.4 12:32:48 20° SE 12:32:48 20° SE 12:34:08 10° SSE
Cosmos 2360 4.4 12:29:25 37° S 12:31:42 68° ESE 12:37:23 10° NNE
Cosmos 2227 Rocket 2.0 12:36:48 86° NNE 12:36:55 88° ENE 12:42:33 10° SSE
STARLINK-44 4.4 12:46:25 46° ENE 12:46:25 46° ENE 12:49:23 10° NE
Nadezhda 1 Rocket 3.8 12:39:45 10° S 12:45:51 89° W 12:51:56 10° N
STARLINK-37 4.4 12:48:14 46° NE 12:48:14 46° NE 12:51:09 10° NE
STARLINK-36 4.2 12:49:36 51° ENE 12:49:36 51° ENE 12:52:42 10° NE
Cosmos 2278 3.5 12:47:37 58° SW 12:48:44 77° WNW 12:54:28 10° NNE
Okean O Rocket 3.8 12:45:07 10° NE 12:48:54 27° E 12:52:38 10° SSE
STARLINK-68 4.3 12:51:36 47° NE 12:51:36 47° NE 12:54:32 10° NE
Cosmos 1626 Rocket 3.7 12:51:28 62° S 12:51:28 62° S 12:55:07 10° S
STARLINK-63 4.1 12:52:59 52° NE 12:52:59 52° NE 12:56:05 10° NE
Cosmos 1726 4.5 12:49:29 10° SE 12:52:27 24° E 12:55:27 10° NE
STARLINK-35 3.9 12:54:22 58° NE 12:54:22 58° NE 12:57:38 10° NE
STARLINK-51 3.9 12:55:58 60° NE 12:55:58 60° NE 12:59:18 10° NE
STARLINK-30 3.8 12:57:35 62° NE 12:57:35 62° NE 13:00:58 10° NE
Cosmos 2369 4.4 12:58:45 37° NNW 12:58:45 37° NNW 13:02:46 10° N
STARLINK-72 3.7 12:59:10 63° NNE 12:59:10 63° NNE 13:02:37 10° NE
METEOR-M 4.3 12:53:39 10° NNE 12:58:59 70° ESE 13:04:18 10° S
STARLINK-50 3.7 13:00:45 65° NNE 13:00:45 65° NNE 13:04:16 10° NE
CZ-3 R/B 3.0 12:49:25 28° WSW 13:01:02 67° S 13:07:33 10° ESE
STARLINK-59 3.7 13:02:34 61° NNE 13:02:34 61° NNE 13:06:01 10° NE
SL-16 R/B 4.4 12:57:48 10° SSE 13:02:23 26° ESE 13:06:58 10° NE
STARLINK-56 3.6 13:03:56 67° N 13:03:56 67° N 13:07:34 10° NE
Starlink (trailer) 3.5 13:05:33 67° N 13:05:33 67° N 13:09:14 10° NE
NOSS 3-4 (A) 4.2 13:00:49 10° S 13:06:31 51° ESE 13:12:24 10° NE
NOSS 3-4 (C) 4.2 13:00:55 10° S 13:06:38 50° ESE 13:12:30 10° NE
STARLINK-38 3.5 13:07:08 66° NNW 13:07:08 66° NNW 13:10:52 10° NE
STARLINK-75 4.0 13:08:05 44° N 13:08:05 44° N 13:11:04 10° NE
STARLINK-65 3.5 13:08:42 65° NNW 13:08:42 65° NNW 13:12:30 10° NE
Cosmos 1953 2.2 13:05:50 10° S 13:09:51 88° W 13:13:56 10° N
STARLINK-53 3.6 13:10:28 59° NNW 13:10:28 59° NNW 13:14:13 10° NE
USA 215 3.7 13:08:04 10° ESE 13:14:24 57° NE 13:19:33 16° NNW
COSMOS 2455 2.7 13:09:43 10° SSW 13:15:42 70° WNW 13:21:42 10° NNE
Cosmos 2184 Rocket 4.2 13:12:34 22° NNW 13:16:14 45° W 13:22:07 10° SSW
STARLINK-41 3.5 13:16:35 53° NNW 13:16:35 53° NNW 13:20:14 10° NE
PAYLOAD B 4.3 13:12:55 10° NNE 13:18:34 84° ESE 13:24:10 10° SSW
CZ-4B R/B 3.7 13:14:09 10° NNE 13:19:38 62° ESE 13:24:58 10° S
Cosmos 1980 Rocket 2.2 13:14:04 10° SW 13:19:38 57° WNW 13:25:15 10° NNE
COSMO-SKYMED 1 2.4 13:16:16 10° S 13:20:35 75° W 13:24:00 16° NNW
Cosmos 1606 Rocket 3.7 13:18:48 10° S 13:23:15 77° E 13:27:41 10° N
STARLINK-58 3.8 13:23:06 45° WNW 13:23:27 46° NW 13:27:19 10° NNE
STARLINK 3.6 13:23:53 47° WNW 13:24:13 49° NW 13:27:58 10° NE
Cosmos 2154 Rocket 3.9 13:18:13 10° NNW 13:24:20 64° W 13:30:26 10° S
STARLINK-62 3.9 13:24:49 42° NW 13:25:09 43° NW 13:29:00 10° NNE
Cosmos 44 Rocket 3.4 13:21:50 19° NNW 13:25:12 71° ENE 13:29:57 10° SE
Cosmos 1726 Rocket 4.0 13:21:16 10° S 13:25:40 63° E 13:30:04 10° NNE
FENGYUN 3A 3.6 13:21:43 10° N 13:27:04 63° WNW 13:32:22 10° SSW
Cosmos 1697 Rocket 3.7 13:28:52 24° NW 13:28:52 24° NW 13:32:42 10° N
SWAS 4.3 13:28:53 20° NNW 13:31:45 81° WSW 13:35:59 10° SSE
ADEOS Rocket 4.1 13:29:48 10° SE 13:34:51 39° ENE 13:39:56 10° N
Cosmos 923 Rocket 3.9 13:30:06 10° SSW 13:35:20 83° WNW 13:40:38 10° NNE
CENTAUR R/B 4.4 13:28:22 10° NNW 13:35:56 39° NE 13:43:56 10° ESE
Meteor 1-21 Rocket 4.3 13:30:32 10° N 13:36:26 81° W 13:42:21 10° S
BREEZE M DEB (TANK) 3.9 13:38:22 19° NNW 13:38:22 19° NNW 13:41:03 10° NNE
Lacrosse 5 3.3 13:34:21 10° S 13:39:03 39° ESE 13:43:46 10° NE
ATLAS 2A CENTAUR R/B 3.7 13:36:39 10° SSW 13:39:36 24° SE 13:46:37 10° E
STARLINK-67 3.4 13:40:41 30° SW 13:40:41 30° SW 13:43:05 10° SSE
ATLAS 2AS CENTAUR R/B 3.0 13:33:18 10° SW 13:41:08 71° WNW 13:49:11 10° NNE
Gbstr 26 Del rocket 4.4 13:35:31 10° SW 13:42:18 82° SE 13:50:15 10° NE
STARLINK 1040 3.4 13:40:53 10° SSW 13:43:40 53° SE 13:46:27 10° NE
Cosmos 972 Rocket 4.3 13:39:58 10° NNW 13:46:09 83° ENE 13:51:35 10° SSE
STARLINK-34 4.5 13:45:23 24° WNW 13:46:40 29° NW 13:50:12 10° NNE
STARLINK-46 3.1 13:47:18 25° N 13:48:02 35° NE 13:49:58 10° ESE
BREEZE-M DEB (TANK) 1.5 13:47:21 30° WNW 13:48:19 63° SW 13:50:24 10° SE
STARLINK-81 4.4 13:48:10 22° WNW 13:49:47 30° NW 13:53:21 10° NNE
Milstar 3 Cent rocket 4.3 13:37:57 10° WSW 13:51:22 48° S 13:58:02 10° E
Cosmos 2366 rocket 4.5 13:46:56 10° N 13:53:15 67° E 13:59:33 10° SSE
Cosmos 2228 3.2 13:50:55 10° SSW 13:55:09 47° W 13:59:25 10° N
USA 32 4.0 13:50:19 10° N 13:55:33 73° W 14:00:46 10° S
USA 238 DEB 3.9 13:49:34 10° NNW 13:56:53 87° WSW 14:04:22 10° SSE
USA 238 3.9 13:49:40 10° NNW 13:56:59 87° WSW 14:04:28 10° SSE
Cosmos 1328 4.1 13:53:22 10° N 13:57:21 71° E 14:01:17 10° SSE
STARLINK 1029 3.0 13:59:33 10° SW 14:02:40 78° SE 14:05:48 10° NE
ALOS 3.4 14:01:43 10° NNW 14:05:09 21° WNW 14:08:36 10° WSW
STARLINK 1031 3.3 14:03:43 10° SW 14:07:13 81° SE 14:10:44 10° NE
Cosmos 2322 Rocket 2.3 14:02:18 10° SSW 14:07:56 87° ESE 14:13:39 10° NNE
Cosmos 2297 Rocket 4.0 14:07:22 10° W 14:08:05 11° W 14:09:22 10° WSW
STARLINK 1024 3.2 14:06:13 10° SW 14:09:43 87° SE 14:13:14 10° NE
Helios 1A Rocket 3.4 14:06:22 10° N 14:10:13 40° WNW 14:14:04 10° SW
SEDSat Delta rocket 4.0 14:07:40 10° W 14:13:32 58° SSW 14:18:38 10° ESE
STARLINK 1032 3.1 14:11:16 10° SW 14:14:47 82° NW 14:18:19 10° NE
Cosmos 2181 Rocket 4.3 14:09:57 10° SSW 14:15:45 43° W 14:21:40 10° N
SL-4 R/B 2.9 14:13:54 10° NNW 14:17:09 34° NE 14:20:17 10° ESE
Cosmos 1953 Rocket 3.8 14:13:00 10° NNW 14:17:16 49° W 14:21:29 10° SSW
STARLINK 1011 3.1 14:13:48 10° SW 14:17:19 77° NW 14:20:51 10° NE
PSLV R/B 2.7 14:18:06 11° W 14:19:41 31° NNW 14:21:25 10° NE
STARLINK 1036 3.1 14:16:21 10° SW 14:19:52 72° NW 14:23:24 10° NE
Okean-O 3.6 14:18:07 10° NNE 14:22:28 53° E 14:26:47 10° S
H-2A R/B 3.0 14:19:26 10° N 14:23:11 46° WNW 14:26:54 10° SSW
STARLINK 1047 3.2 14:21:32 10° SW 14:25:01 62° NW 14:28:32 10° NE
Okean O Rocket 2.8 14:21:37 10° NNW 14:25:03 22° WNW 14:28:28 10° WSW
Cosmos 1680 Rocket 4.1 14:20:27 10° SW 14:25:19 36° WNW 14:30:14 10° N
STARLINK 1037 3.2 14:21:52 10° SW 14:25:22 62° NW 14:28:52 10° NE
Cosmos 2263 Rocket 2.3 14:21:07 10° NNW 14:26:48 85° ENE 14:32:28 10° SSE
STARLINK 1028 3.2 14:24:32 10° WSW 14:27:18 40° NW 14:30:04 10° NNE
STARLINK 1021 3.2 14:24:45 10° WSW 14:27:30 39° NW 14:30:17 10° NNE
Cosmos 1726 3.8 14:25:29 10° WSW 14:27:37 15° WNW 14:29:46 10° NW
STARLINK 1019 3.2 14:25:00 10° WSW 14:27:44 39° NW 14:30:30 10° NNE
STARLINK 1012 3.2 14:25:12 10° WSW 14:27:57 39° NW 14:30:44 10° NNE
STARLINK 1059 3.3 14:24:30 10° WSW 14:27:58 57° NW 14:31:28 10° NE
Envisat 3.3 14:22:55 10° NNE 14:28:00 77° ESE 14:33:04 10° S
NOSS 7 (D) 4.4 14:24:51 10° NW 14:28:03 64° WSW 14:31:44 10° SSE
STARLINK 1010 3.2 14:25:25 10° WSW 14:28:11 39° NW 14:30:57 10° NNE
STARLINK 1026 3.2 14:25:41 10° WSW 14:28:25 38° NW 14:31:11 10° NNE
STARLINK 1013 3.2 14:25:53 10° WSW 14:28:38 38° NW 14:31:24 10° NNE
STARLINK 1009 3.2 14:26:06 10° WSW 14:28:51 38° NW 14:31:37 10° NNE
STARLINK 1015 3.2 14:26:20 10° WSW 14:29:04 38° NW 14:31:49 10° NNE
STARLINK 1016 3.2 14:26:34 10° WSW 14:29:18 37° NW 14:32:03 10° NNE
STARLINK 1008 3.3 14:26:48 10° WSW 14:29:32 37° NW 14:32:16 10° NNE
Cosmos 1300 2.9 14:26:03 10° S 14:29:50 75° E 14:33:39 10° N
SL-8 Rocket 4.3 14:24:39 10° NNW 14:30:29 45° W 14:36:16 10° SSW
STARLINK 1057 3.3 14:27:08 10° WSW 14:30:36 53° NW 14:34:04 10° NE
